DECAYED

OBJECT B, 56847 (Decayed)

Orbit data source: Space-Track

You're viewing an Uncataloged Satellite

Recently launched and/or uncataloged satellites may have evolving metadata. Metadata may include but not limited to: Owner, Maufacturer, Bus, Motor, and Mission.

OBJECT B, 56847 was a satellite in LEO that was launched on Wed, 07 Jun 2023 UTC via a LIJIAN-1 launch vehicle from the Jiuquan Satellite Launch Center, China (JSC). Unknown objects in Earth's orbit typically refer to objects detected orbiting the Earth but have not yet been identified or cataloged. These objects could be anything from previously untracked satellites, spent rocket stages, debris from satellite collisions, or even natural meteoroids temporarily captured by Earth's gravity. This object's orbit decayed before it could be identified.

Not visible in the next 10 days
Identifier
56847, 2023-081B
Orbit
Decayed
Country
Flag of TBDTBD
Related business
None
Manufacturer
Unknown
Mission
Decayed Defense Technology
Bus & Motor
Unknown
Mass
Unknown
Launch date (UTC)
2023-06-07 (3 years ago)
Launch vehicle
LIJIAN-1
Launch site
Jiuquan Satellite Launch Center, China (JSC)
Object type
Unknown
Shape & HBR
Box + 4 Pan, 4.0 m
Radar Cross Section
8.634 m², Medium (>0.1 m² and < 1m²)

Expand to show TLE details & history
Last TLE update: 8 months ago

TLE from 8 months ago
0 OBJECT B
1 56847U 23081B   25252.09404918  .10758010  24942-5  56282-3 0  9999
2 56847  97.2986 336.3358 0014012 262.1414  97.8296 16.41180309126476
Epoch: 2025-09-09T02:15Z
TLE epoch observation values (Epoch: 2025-09-09T02:15:25.849Z)
Latitude
0.00001°
Longitude
-45.91166°
Altitude
167.182 km
Speed
7.805 km/s
True Right ascension
22h 25m 20s
True Declination
0° 00' 00"
Sunlit
Object was in full shadow at epoch
Visualization orbit readout
Latitude
Unknown
Longitude
Unknown
Altitude
Unknown
Speed
Unknown
Apparent Right ascension
Unknown
Apparent Declination
Unknown
Sunlit
N/A
Visualization observer readout
Local Sidereal Time
23:29:04
Azimuth
Unknown
Elevation
Unknown
Doppler factor
Unknown
Orbital elements
Apogee altitude
168.627 km
Perigee altitude
150.306 km
Semi-major axis
6,537.603 km
Eccentricity
0.0014
Inclination
97.2986°
RAAN
336.3358°
Arg. of periapsis
262.1414°
True anomaly
97.98863°
Mean anomaly
97.8296°
Eccentric anomaly
97.90912°
Mean motion
4.10597 °/min
Orbital period
87.68 mins
BSTAR
0.00056282
Loading maneuver chart data...
Computing Atmospheric mass density...
Loading historical data...
Loading historical data...
Loading historical data...
Loading historical data...
Loading historical data...
Loading historical data...
Loading historical data...

Documentation

Showing up to 5 results
|